Torna al catalogo

NIMBUS 2

AttivoMeteoSSO
NORAD 2173·PAYLOAD·🇺🇸 United States

Lanciato May 15, 1966 da Vandenberg Space Force Base

Loading…

Prossimi Passaggi (prossime 24 ore)

TLE

AggiornatoSource: Space-Track

Epoca: Sep 14, 2026, 13:59 UTC

1 02173U 66040A   26257.58298223 -.00000024  00000-0  46927-4 0  9999
2 02173 100.5152 118.3655 0055898  87.6551 301.3470 13.33723420935547

Traccia NIMBUS 2 in tempo reale con AllMySat

Download on the App Store